TimeCST,TemperatureF,Dew PointF,Humidity,Sea Level PressureIn,VisibilityMPH,Wind Direction,Wind SpeedMPH,Gust SpeedMPH,PrecipitationIn,Events,Conditions,WindDirDegrees,DateUTC
12:53 AM,34.0,26.1,73,30.11,10.0,Calm,Calm,-,N/A,,Clear,0,2012-11-25 06:53:00
1:53 AM,32.0,26.1,79,30.09,10.0,Calm,Calm,-,N/A,,Clear,0,2012-11-25 07:53:00
2:53 AM,34.0,26.1,73,30.08,10.0,Calm,Calm,-,N/A,,Clear,0,2012-11-25 08:53:00
3:53 AM,30.9,26.1,82,30.06,10.0,Calm,Calm,-,N/A,,Clear,0,2012-11-25 09:53:00
4:53 AM,28.9,26.1,89,30.08,10.0,Calm,Calm,-,N/A,,Clear,0,2012-11-25 10:53:00
5:53 AM,28.0,26.1,92,30.07,10.0,Calm,Calm,-,N/A,,Clear,0,2012-11-25 11:53:00
6:53 AM,28.0,25.0,88,30.08,10.0,Calm,Calm,-,N/A,,Clear,0,2012-11-25 12:53:00
7:53 AM,30.9,27.0,85,30.09,10.0,Calm,Calm,-,N/A,,Clear,0,2012-11-25 13:53:00
8:53 AM,39.9,33.1,77,30.09,10.0,Calm,Calm,-,N/A,,Clear,0,2012-11-25 14:53:00
9:53 AM,54.0,30.9,41,30.06,10.0,Variable,3.5,-,N/A,,Clear,0,2012-11-25 15:53:00
10:53 AM,55.9,28.9,36,30.04,10.0,Variable,4.6,-,N/A,,Clear,0,2012-11-25 16:53:00
11:53 AM,60.1,32.0,35,30.01,10.0,Calm,Calm,-,N/A,,Clear,0,2012-11-25 17:53:00
12:53 PM,62.1,33.1,34,29.98,10.0,SW,8.1,-,N/A,,Clear,220,2012-11-25 18:53:00
1:53 PM,64.0,36.0,35,29.95,10.0,Variable,3.5,-,N/A,,Clear,0,2012-11-25 19:53:00
2:53 PM,64.0,37.0,37,29.92,10.0,Variable,3.5,-,N/A,,Clear,0,2012-11-25 20:53:00
3:53 PM,63.0,39.0,41,29.93,10.0,Variable,5.8,-,N/A,,Clear,0,2012-11-25 21:53:00
4:53 PM,60.1,39.0,46,29.93,10.0,Calm,Calm,-,N/A,,Clear,0,2012-11-25 22:53:00
5:53 PM,55.9,39.9,55,29.93,10.0,Calm,Calm,-,N/A,,Clear,0,2012-11-25 23:53:00
6:53 PM,55.0,39.9,57,29.95,10.0,Variable,3.5,-,N/A,,Clear,0,2012-11-26 00:53:00
7:53 PM,54.0,39.0,57,29.94,10.0,Calm,Calm,-,N/A,,Clear,0,2012-11-26 01:53:00
8:53 PM,59.0,39.9,49,29.95,10.0,Variable,5.8,-,N/A,,Clear,0,2012-11-26 02:53:00
9:53 PM,57.9,39.9,51,29.94,10.0,Variable,3.5,-,N/A,,Clear,0,2012-11-26 03:53:00
10:53 PM,52.0,41.0,66,29.95,10.0,Calm,Calm,-,N/A,,Clear,0,2012-11-26 04:53:00
11:53 PM,48.0,42.1,80,29.96,10.0,Calm,Calm,-,N/A,,Clear,0,2012-11-26 05:53:00